Retour au catalogue

STARLINK-11084

ActifCommunicationsVLEO
NORAD 59717·PAYLOAD·🇺🇸 United States

Lancé May 10, 2024 depuis Vandenberg Space Force Base

Loading…

Prochains Passages (prochaines 24 heures)

TLE

FraisSource: CelesTrak SupGP

Époque: Sep 14, 2026, 21:35 UTC

1 59717C 24088K   26257.89979167 -.00049581  00000+0 -40848-3 0  2571
2 59717  53.1559 113.3849 0001198  95.8736 199.7372 15.69730148    18

Suivez STARLINK-11084 en temps réel avec AllMySat

Download on the App Store